Snowfall_Accumulation
0.0 0.0 0.0 0.0 0.0 0.0 0.0 0.0 0.0 0.0 0.0 0.0 0.0 0.0 0.0 0.0 0.0 0.0 0.0 0.0 0.0 0.0 0.0 0.0 0.0 0.0 0.1 0.1 0.1 0.0 0.0 0.0 0.7 0.8 0.5 0.3 0.6 0.4 0.3 0.3 0.4 0.1 0.2
0.0 0.0 0.0 0.0 0.0 0.0 0.0 0.0 0.0 0.0 0.0 0.0 0.0 0.0 0.0 0.0 0.0 0.0 0.0 0.0 0.0 0.0 0.0 0.0 0.0 0.0 0.0 0.0 0.2 0.0 0.0 0.1 0.5 0.7 0.6 1.8 1.1 0.5 0.5 0.3 0.1 0.0 0.5
0.0 0.0 0.0 0.0 0.1 0.5 1.3 0.5 0.1 0.6 0.6 0.1 0.0 0.0 0.1 0.1 0.1 0.0 0.0 0.1 0.0 0.0 0.0 0.0 0.0 0.0 0.0 0.2 0.1 0.2 0.3 0.1 0.4 1.3 2.2 1.4 2.1 1.6 1.7 1.6 1.0 0.5 0.1
0.0 0.0 0.1 0.2 0.1 0.6 1.7 3.2 3.0 1.4 1.0 0.7 0.4 0.8 0.9 0.7 0.2 0.5 0.1 0.1 0.2 0.1 0.1 0.0 0.0 0.0 0.0 0.0 0.0 0.1 0.1 0.5 0.6 1.0 1.5 2.0 1.9 2.2 1.6 2.1 3.3 2.6 2.3
0.1 1.3 3.1 1.5 1.4 2.8 4.9 5.1 4.4 2.9 2.1 2.7 2.3 1.7 1.3 0.5 0.1 0.1 0.1 0.1 0.2 0.3 0.3 0.1 0.1 0.0 nan nan 0.2 0.2 0.1 0.4 0.8 0.9 1.4 1.4 1.5 2.4 2.5 2.3 3.9 3.9 4.8
1.8 5.8 4.8 5.1 4.6 5.0 7.7 6.9 6.0 5.0 4.8 3.9 2.8 2.1 1.6 0.1 nan nan 0.1 0.1 0.2 0.2 0.3 0.3 0.1 0.1 0.0 nan nan nan nan 0.1 0.2 1.0 1.0 0.8 0.5 1.2 1.6 2.2 3.1 5.9 7.7
5.3 7.2 8.0 8.7 7.1 7.7 7.1 7.0 6.3 5.2 3.8 4.8 3.5 1.7 1.7 0.4 nan nan nan 0.3 0.2 0.2 0.3 0.2 0.2 0.1 0.1 0.1 nan nan nan nan nan 0.1 0.2 0.4 0.8 0.5 0.5 1.4 2.1 3.3 4.2
6.9 7.8 7.5 8.2 7.3 6.5 6.7 6.5 6.3 4.0 4.6 2.9 3.1 2.7 1.8 1.2 nan nan nan 0.6 0.8 1.2 0.6 0.5 0.2 0.2 0.1 0.1 0.1 0.1 0.1 0.2 0.1 0.1 0.1 0.2 0.2 0.3 0.3 0.5 1.7 3.0 4.7
8.4 7.8 7.7 6.5 8.2 7.5 7.6 7.5 4.7 2.7 1.7 2.6 2.5 2.6 1.5 3.2 nan nan 0.7 1.5 1.3 2.1 2.1 1.3 0.9 0.7 nan nan 0.3 1.0 1.0 0.5 nan nan nan nan nan nan nan 3.1 10.8 14.2 9.5
6.5 6.8 6.4 5.9 5.5 7.0 4.7 5.8 5.5 2.6 2.9 2.1 2.0 2.0 1.4 2.0 nan nan nan 1.4 1.4 2.8 2.8 2.8 1.8 0.8 nan nan 1.5 1.8 4.3 3.4 1.8 2.8 1.8 1.2 nan nan nan 1.4 3.4 10.8 8.1
3.1 3.8 4.4 3.6 3.7 3.0 2.2 1.7 2.1 2.5 2.6 2.9 2.7 1.9 2.5 1.6 2.2 nan nan 2.0 3.4 3.6 3.5 4.3 3.3 nan nan nan nan 2.9 3.2 3.1 4.9 4.6 6.6 7.1 5.1 3.6 4.2 3.8 3.3 4.7 8.8
1.5 1.7 2.2 2.3 1.6 1.4 1.3 0.7 1.7 1.0 0.9 2.4 2.1 2.5 2.1 1.5 nan nan nan nan nan 2.7 2.9 3.3 3.5 nan nan nan 2.5 nan nan 2.6 6.3 7.2 6.5 6.7 8.2 7.2 6.3 7.4 6.8 6.2 5.8
1.7 3.1 2.7 2.2 1.6 1.4 1.1 0.5 1.5 0.3 1.3 0.5 1.9 2.0 1.7 2.1 1.5 nan nan nan nan 1.6 1.4 2.0 nan nan nan nan nan nan 1.2 5.4 6.9 8.6 7.3 6.5 5.0 4.3 4.8 6.3 5.1 4.4 4.2
3.5 2.1 1.3 1.4 0.8 0.9 1.3 1.4 2.0 2.1 2.1 2.2 2.7 2.6 1.8 1.8 1.2 1.1 1.4 0.7 0.6 1.9 nan 1.8 nan 1.3 nan nan 1.7 2.1 3.4 4.0 4.5 5.9 6.8 5.3 5.1 7.6 7.8 5.6 6.6 5.8 9.1
3.2 1.5 1.1 1.9 2.1 1.4 1.3 1.8 1.6 0.5 1.5 4.1 5.3 3.9 5.8 5.5 2.8 0.9 2.8 3.2 2.9 3.5 4.4 6.5 6.1 4.9 5.0 4.4 4.7 5.1 5.4 5.4 6.4 6.7 7.7 8.2 8.7 8.1 7.4 5.7 6.3 7.7 9.2
2.3 3.2 2.7 2.7 2.4 2.1 2.2 2.3 nan nan nan nan nan 2.3 3.6 nan nan nan nan nan nan nan 11.7 12.9 7.5 6.2 6.0 6.0 7.6 7.8 7.7 7.2 7.2 8.4 9.7 9.1 10.3 9.4 9.2 9.5 8.7 9.5 10.7
5.2 3.8 4.5 4.0 3.7 3.8 3.9 4.1 6.4 3.2 nan nan nan nan nan nan nan nan nan nan nan nan 17.7 10.2 9.7 7.3 7.1 6.9 7.4 8.1 9.8 8.3 7.0 9.4 9.2 9.8 10.6 11.1 11.7 10.8 9.4 8.6 11.5
5.2 2.1 4.5 4.3 4.0 4.6 4.6 4.8 5.2 6.8 8.4 6.6 nan nan nan nan nan nan nan nan 16.2 nan 12.4 14.9 14.9 11.7 9.9 9.4 8.4 10.7 11.1 11.3 10.5 9.7 9.8 12.2 14.0 15.0 15.0 14.5 11.5 13.8 13.4
6.6 5.0 5.5 5.1 4.8 5.1 6.4 5.4 5.4 6.8 7.5 9.1 9.6 7.7 3.6 nan nan nan nan 10.1 15.6 14.6 14.2 14.5 11.7 11.9 10.5 10.7 10.2 11.8 13.3 14.6 13.5 15.9 15.7 16.6 15.6 16.7 17.0 13.3 12.1 7.9 8.7
9.1 3.9 5.8 8.6 8.3 7.8 6.7 9.4 9.0 9.6 11.5 12.4 12.1 10.5 11.4 11.6 15.0 14.1 10.2 13.6 15.2 14.7 13.3 14.9 14.2 15.6 16.5 15.6 15.3 14.7 18.8 20.2 19.0 18.3 17.8 17.4 16.7 17.5 15.0 17.9 16.2 15.6 16.0
13.9 12.6 3.9 12.4 13.5 13.7 13.6 12.8 12.3 15.0 14.1 15.4 13.0 10.8 nan 14.7 18.3 16.1 16.8 15.2 15.2 16.5 15.9 16.2 16.9 20.8 20.6 22.5 19.9 20.4 22.6 16.6 19.0 20.2 20.7 20.6 20.3 26.2 16.4 13.5 17.5 18.3 18.1
16.4 17.3 17.5 18.4 15.2 16.2 17.6 14.9 16.4 16.5 16.9 16.0 14.8 13.9 nan 13.5 14.5 15.5 15.9 17.6 19.4 18.7 20.4 26.0 25.2 25.6 22.9 22.0 20.7 20.3 21.1 23.1 23.9 23.1 20.1 21.1 23.4 22.2 21.4 18.0 18.4 17.3 20.2
16.2 15.5 16.3 16.9 16.2 7.8 17.8 20.1 20.0 20.4 20.2 21.3 20.3 21.6 21.7 21.9 19.7 19.1 22.1 22.3 19.1 18.6 20.8 22.0 21.3 21.2 18.7 20.3 18.1 17.9 22.1 24.3 23.9 28.6 24.7 24.5 24.4 25.8 24.1 23.2 21.4 24.6 23.1
16.4 16.5 16.5 19.7 19.1 18.4 19.8 20.5 19.3 7.8 21.5 22.9 28.4 26.7 22.9 25.4 28.1 22.0 21.1 21.4 18.8 25.2 20.5 21.1 18.8 18.6 19.0 23.8 27.1 26.2 27.6 28.8 31.9 31.3 29.8 25.5 24.3 20.6 23.7 25.8 22.3 21.5 20.6
21.1 20.3 20.0 19.2 23.3 21.6 20.8 23.0 20.5 23.7 25.6 23.5 26.2 23.6 24.2 23.8 24.8 28.6 26.2 22.6 22.4 20.3 18.5 17.8 17.4 17.7 18.1 18.7 22.6 24.9 23.5 5.2 18.9 5.6 29.6 25.0 26.6 26.1 26.1 24.1 22.9 21.9 20.2
20.8 21.4 21.8 22.1 22.2 22.9 23.1 22.8 22.9 20.8 23.3 24.0 23.9 24.9 23.7 24.0 24.0 25.4 25.1 24.9 21.0 19.8 19.0 18.8 18.3 17.5 17.1 17.4 18.1 7.5 5.0 4.5 25.4 4.9 28.8 27.3 26.9 25.0 24.8 24.8 23.6 23.0 20.3
Water_Equivalent
0.00 0.00 0.00 0.00 0.00 0.00 0.00 0.00 0.00 0.00 0.00 0.00 0.00 0.00 0.00 0.00 0.00 0.00 0.00 0.00 0.00 0.00 0.00 0.00 0.00 0.00 0.06 0.05 0.02 0.00 0.00 0.00 0.21 0.29 0.20 0.12 0.24 0.14 0.12 0.12 0.16 0.05 0.08
0.00 0.00 0.00 0.00 0.00 0.00 0.01 0.01 0.00 0.01 0.00 0.01 0.00 0.01 0.00 0.00 0.00 0.00 0.01 0.01 0.01 0.01 0.01 0.01 0.01 0.00 0.00 0.00 0.07 0.00 0.01 0.02 0.19 0.18 0.22 0.69 0.39 0.18 0.15 0.10 0.05 0.02 0.18
0.00 0.00 0.00 0.02 0.03 0.17 0.46 0.18 0.04 0.22 0.23 0.04 0.01 0.01 0.03 0.03 0.03 0.01 0.02 0.02 0.02 0.02 0.01 0.01 0.01 0.01 0.01 0.10 0.04 0.09 0.12 0.03 0.15 0.40 0.66 0.50 0.72 0.55 0.57 0.54 0.34 0.14 0.04
0.01 0.01 0.03 0.06 0.05 0.21 0.63 1.20 1.14 0.57 0.39 0.27 0.14 0.30 0.35 0.29 0.10 0.18 0.03 0.05 0.07 0.05 0.03 0.02 0.01 0.01 0.01 0.01 0.02 0.02 0.03 0.17 0.21 0.33 0.46 0.57 0.54 0.69 0.53 0.60 0.83 0.67 0.64
0.04 0.43 0.94 0.50 0.45 0.87 1.49 1.55 1.38 1.06 0.78 0.95 0.82 0.58 0.44 0.19 0.03 0.05 0.03 0.04 0.05 0.09 0.09 0.03 0.02 0.01 nan nan 0.08 0.06 0.04 0.11 0.26 0.27 0.34 0.33 0.33 0.51 0.54 0.65 0.89 0.87 1.03
0.55 1.42 1.34 1.49 1.38 1.34 1.87 1.48 1.32 1.12 1.29 1.03 0.79 0.63 0.47 0.05 nan nan 0.02 0.03 0.05 0.07 0.11 0.09 0.04 0.02 0.02 nan nan nan nan 0.03 0.06 0.28 0.26 0.19 0.11 0.30 0.41 0.54 0.66 1.16 1.30
1.29 1.97 2.19 2.21 1.54 1.62 1.54 1.53 1.25 1.02 0.98 1.11 0.80 0.44 0.47 0.13 nan nan nan 0.08 0.08 0.07 0.07 0.06 0.07 0.03 0.03 0.03 nan nan nan nan nan 0.03 0.06 0.10 0.15 0.11 0.10 0.25 0.39 0.63 0.73
1.63 1.80 1.74 1.88 1.48 1.36 1.32 1.24 1.41 0.97 1.17 0.74 0.82 0.68 0.47 0.46 nan nan nan 0.18 0.20 0.28 0.14 0.11 0.06 0.05 0.02 0.02 0.02 0.03 0.03 0.04 0.03 0.02 0.04 0.05 0.06 0.07 0.07 0.11 0.29 0.44 0.80
1.77 1.65 1.63 1.38 1.63 1.36 1.26 1.37 0.96 0.55 0.36 0.52 0.61 0.62 0.37 0.86 nan nan 0.18 0.37 0.29 0.50 0.53 0.37 0.24 0.18 nan nan 0.06 0.20 0.20 0.11 nan nan nan nan nan nan nan 0.68 2.34 2.89 1.84
1.22 1.32 1.29 1.20 1.13 1.12 0.78 0.93 1.12 0.57 0.61 0.48 0.40 0.42 0.42 0.48 nan nan nan 0.37 0.33 0.62 0.60 0.63 0.57 0.23 nan nan 0.34 0.35 0.75 0.62 0.33 0.59 0.33 0.23 nan nan nan 0.25 0.73 2.11 1.50
0.56 0.69 0.80 0.68 0.69 0.57 0.41 0.33 0.36 0.41 0.45 0.48 0.41 0.35 0.46 0.37 0.50 nan nan 0.48 0.83 0.73 0.72 0.85 0.72 nan nan nan nan 0.55 0.51 0.53 0.79 0.74 0.97 1.16 0.80 0.53 0.68 0.58 0.49 0.84 1.59
0.25 0.29 0.36 0.40 0.28 0.28 0.26 0.13 0.29 0.17 0.15 0.31 0.31 0.49 0.44 0.25 nan nan nan nan nan 0.58 0.52 0.63 0.72 nan nan nan 0.65 nan nan 0.66 1.32 1.39 1.18 1.04 1.02 0.89 0.77 0.88 0.72 0.73 0.74
0.31 0.60 0.51 0.40 0.32 0.26 0.25 0.11 0.41 0.09 0.32 0.10 0.41 0.42 0.36 0.41 0.36 nan nan nan nan 0.38 0.33 0.42 nan nan nan nan nan nan 0.40 1.07 1.32 1.56 1.08 0.81 0.60 0.51 0.47 0.68 0.50 0.43 0.42
0.74 0.35 0.21 0.26 0.18 0.17 0.36 0.39 0.56 0.50 0.45 0.49 0.59 0.58 0.41 0.42 0.29 0.29 0.44 0.25 0.18 0.52 nan 0.45 nan 0.33 nan nan 0.46 0.50 0.68 0.76 0.77 0.91 0.92 0.66 0.65 0.92 0.91 0.65 0.84 0.71 1.19
0.51 0.20 0.20 0.37 0.41 0.25 0.26 0.44 0.38 0.14 0.41 0.97 1.27 0.90 1.20 1.15 0.61 0.23 0.79 0.93 0.87 0.94 1.20 1.50 1.30 0.97 0.93 0.82 0.95 0.97 0.93 0.91 1.02 1.02 1.07 1.08 1.10 1.03 0.92 0.72 0.79 1.03 1.30
0.28 0.47 0.46 0.48 0.42 0.36 0.39 0.43 nan nan nan nan nan 0.68 1.08 nan nan nan nan nan nan nan 2.79 2.62 1.27 1.02 0.90 0.92 1.17 1.08 1.04 1.09 0.99 1.13 1.29 1.24 1.33 1.15 1.12 1.26 1.17 1.29 1.36
0.71 0.44 0.61 0.54 0.50 0.56 0.61 0.68 0.87 0.60 nan nan nan nan nan nan nan nan nan nan nan nan 4.11 1.94 1.61 1.15 1.15 1.08 1.15 1.08 1.20 1.03 0.77 1.20 1.12 1.22 1.35 1.46 1.61 1.40 1.20 1.11 1.58
0.67 0.70 0.68 0.64 0.63 0.72 0.75 0.79 0.89 1.06 1.21 0.96 nan nan nan nan nan nan nan nan 3.84 nan 2.83 2.97 2.56 2.05 1.66 1.54 1.30 1.35 1.35 1.35 1.26 1.21 1.24 1.69 2.01 2.15 2.09 2.05 1.56 1.95 1.83
0.78 0.64 0.72 0.71 0.68 0.76 0.94 0.78 0.82 0.95 1.03 1.25 1.24 1.27 0.98 nan nan nan nan 2.34 3.18 2.75 2.69 2.79 2.27 2.16 1.76 1.88 1.77 2.06 1.80 1.93 1.78 2.31 2.32 2.51 2.32 2.49 2.51 1.86 1.59 1.43 1.51
1.02 0.99 0.88 1.11 1.04 0.96 0.78 1.11 1.00 1.08 1.30 1.43 1.41 1.22 1.92 2.25 2.87 2.91 2.32 3.23 3.32 2.95 2.50 2.72 2.70 3.02 3.18 2.98 2.91 2.71 2.84 3.06 2.80 2.76 2.68 2.63 2.50 2.70 1.98 2.61 2.31 2.05 2.28
1.60 1.39 1.30 1.34 1.54 1.59 1.59 1.43 1.32 1.73 1.57 1.78 1.44 1.34 nan 2.37 2.49 2.68 2.97 2.76 3.06 3.32 2.76 2.98 3.14 4.06 4.17 4.65 3.92 3.84 3.54 2.29 2.82 3.06 3.23 3.20 3.13 4.02 2.43 1.78 2.47 2.62 2.56
1.84 1.96 1.97 2.09 1.56 1.71 1.96 1.52 1.73 1.74 1.75 1.61 1.44 1.56 nan 1.91 2.11 2.17 2.42 3.00 3.59 3.66 4.10 4.83 4.74 5.11 4.50 4.19 3.79 3.59 3.04 3.44 3.70 3.46 2.82 2.98 3.48 3.10 3.09 2.32 2.43 2.18 2.76
1.64 1.47 1.60 1.64 1.59 1.69 1.83 2.20 2.08 2.10 2.01 2.20 2.06 2.15 2.36 2.77 2.58 2.56 3.43 3.66 3.05 2.94 3.38 3.69 3.49 3.40 3.10 3.42 2.99 2.85 3.09 3.30 3.34 4.41 3.23 3.26 3.18 3.60 3.30 3.04 2.74 3.15 2.99
1.53 1.55 1.54 2.04 1.88 1.70 1.97 2.09 1.86 1.82 2.10 2.30 3.34 2.91 2.12 2.59 3.38 2.61 2.65 3.03 2.60 4.03 3.03 3.26 2.77 2.69 2.84 4.03 5.00 4.83 5.18 5.45 5.26 4.86 4.42 3.18 3.04 2.68 2.80 3.25 2.64 2.56 2.25
2.02 1.82 1.83 1.71 2.46 2.08 1.95 2.33 1.82 2.42 2.78 2.34 2.80 2.23 2.29 2.18 2.37 3.16 3.00 2.60 2.86 2.66 2.39 2.37 2.39 2.44 2.46 2.56 3.36 4.15 4.28 1.72 3.21 1.84 4.02 2.95 3.33 3.32 3.19 2.80 2.63 2.37 2.13
1.76 1.86 1.93 1.98 1.97 2.14 2.22 2.17 2.24 1.86 2.29 2.43 2.33 2.42 2.15 2.17 2.19 2.55 2.44 2.48 2.12 2.22 2.28 2.43 2.43 2.27 2.14 2.26 2.33 1.97 1.64 1.49 3.57 1.63 3.47 2.99 3.11 2.78 2.74 2.77 2.58 2.49 2.08
SL_Ratio
nan nan nan nan nan nan nan nan nan nan nan nan nan nan nan nan nan nan nan nan 2.5 2.0 nan nan nan nan 2.5 2.5 2.4 nan nan nan 3.2 2.7 2.5 2.5 2.5 2.7 2.5 2.8 2.6 2.5 2.6
nan nan nan nan nan nan 2.3 2.5 2.5 2.5 2.5 2.7 2.5 2.5 0.0 nan nan 2.5 2.6 2.1 2.8 2.5 2.5 2.7 2.5 nan 2.5 nan 2.5 2.5 2.8 2.5 2.9 4.0 2.9 2.7 2.8 3.0 3.1 2.9 3.0 2.7 2.8
nan nan 1.7 2.5 2.6 2.8 2.8 2.7 2.5 2.5 2.5 2.5 2.4 2.5 2.5 2.5 2.5 2.4 2.5 2.4 2.4 2.4 2.5 2.4 2.5 2.5 2.5 2.5 2.5 2.5 2.5 2.6 2.6 3.2 3.4 2.7 2.9 2.9 3.0 2.9 2.8 3.3 2.8
2.5 2.8 2.8 2.8 2.8 2.8 2.7 2.7 2.6 2.5 2.5 2.5 2.5 2.5 2.5 2.5 2.5 2.5 2.6 2.5 2.6 2.7 2.5 2.4 2.4 2.5 2.6 2.6 2.7 2.7 2.7 2.9 2.9 3.1 3.3 3.5 3.5 3.2 3.1 3.5 4.0 3.9 3.6
2.8 3.1 3.3 3.0 3.0 3.2 3.3 3.3 3.2 2.8 2.7 2.8 2.8 3.0 2.9 2.7 2.6 2.5 2.5 2.6 2.9 3.1 3.0 2.9 2.5 2.5 nan nan 2.6 2.8 3.0 3.3 3.3 3.5 4.0 4.1 4.4 4.7 4.6 3.5 4.3 4.5 4.7
3.3 4.1 3.6 3.4 3.3 3.7 4.1 4.7 4.5 4.5 3.7 3.7 3.6 3.4 3.4 2.6 nan nan 2.6 2.8 3.1 3.3 3.3 3.2 2.8 2.7 2.5 nan nan nan nan 3.1 3.9 3.7 3.8 4.1 4.8 4.0 3.8 4.1 4.7 5.1 5.9
4.1 3.7 3.7 4.0 4.6 4.7 4.6 4.6 5.0 5.1 3.9 4.3 4.4 3.8 3.6 3.1 nan nan nan 3.0 3.3 3.6 3.5 3.5 3.3 3.1 2.6 2.8 nan nan nan nan nan 3.3 4.1 3.9 5.4 4.5 4.5 5.8 5.5 5.3 5.7
4.2 4.3 4.3 4.3 4.9 4.8 5.1 5.3 4.5 4.2 3.9 4.0 3.8 3.9 3.8 2.7 nan nan nan 3.5 4.1 4.2 4.1 4.1 3.8 3.8 3.2 3.1 3.3 4.2 4.3 3.9 3.5 3.7 4.1 4.1 4.0 3.9 4.0 4.4 5.8 6.8 5.9
4.7 4.8 4.7 4.7 5.0 5.5 6.0 5.5 4.9 5.0 4.9 5.0 4.1 4.2 4.1 3.7 nan nan 3.7 4.2 4.4 4.2 4.0 3.4 3.6 3.8 nan nan 4.4 5.0 4.9 4.7 nan nan nan nan nan nan nan 4.5 4.6 4.9 5.2
5.3 5.1 4.9 4.9 4.9 6.3 6.0 6.2 4.9 4.5 4.7 4.3 5.0 4.7 3.4 4.1 nan nan nan 3.7 4.4 4.6 4.7 4.4 3.1 3.4 nan nan 4.5 5.1 5.7 5.5 5.5 4.7 5.3 5.3 nan nan nan 5.6 4.7 5.1 5.4
5.6 5.5 5.5 5.4 5.3 5.3 5.3 5.1 5.8 6.0 5.7 6.0 6.6 5.3 5.5 4.4 4.4 nan nan 4.1 4.1 4.9 4.9 5.0 4.6 nan nan nan nan 5.3 6.3 5.9 6.2 6.2 6.9 6.1 6.4 6.8 6.2 6.5 6.7 5.6 5.6
6.0 6.0 6.2 5.7 5.7 5.1 4.8 5.4 5.9 6.1 6.1 7.6 6.7 5.1 4.8 5.9 nan nan nan nan nan 4.7 5.5 5.2 4.9 nan nan nan 3.9 nan nan 3.9 4.8 5.2 5.5 6.5 8.1 8.1 8.2 8.4 9.6 8.5 7.8
5.5 5.1 5.2 5.6 5.1 5.3 4.3 4.7 3.7 3.8 4.0 5.1 4.7 4.8 4.8 5.0 4.3 nan nan nan nan 4.1 4.3 4.8 nan nan nan nan nan nan 3.0 5.0 5.2 5.5 6.8 8.0 8.3 8.4 10.1 9.3 10.2 10.1 10.2
4.8 6.0 6.3 5.6 4.6 5.2 3.7 3.5 3.6 4.2 4.6 4.5 4.6 4.6 4.3 4.4 4.2 3.7 3.2 2.8 3.1 3.6 nan 3.9 nan 4.0 nan nan 3.7 4.3 5.0 5.3 5.8 6.4 7.3 7.9 7.9 8.3 8.6 8.6 7.9 8.1 7.7
6.2 7.4 5.7 5.1 5.1 5.4 5.1 4.0 4.3 3.9 3.8 4.2 4.2 4.3 4.9 4.8 4.6 3.9 3.5 3.4 3.4 3.7 3.7 4.4 4.7 5.1 5.3 5.3 4.9 5.3 5.8 6.0 6.2 6.6 7.2 7.6 8.0 7.9 7.9 7.9 8.0 7.4 7.1
8.2 6.8 5.9 5.7 5.6 5.7 5.6 5.3 nan nan nan nan nan 3.4 3.3 nan nan nan nan nan nan nan 4.2 4.9 5.9 6.1 6.6 6.5 6.5 7.3 7.4 6.6 7.3 7.4 7.5 7.4 7.8 8.1 8.2 7.5 7.4 7.4 7.9
7.3 8.6 7.4 7.4 7.3 6.8 6.4 6.1 7.4 5.4 nan nan nan nan nan nan nan nan nan nan nan nan 4.3 5.3 6.0 6.4 6.2 6.4 6.4 7.5 8.2 8.1 9.2 7.8 8.2 8.0 7.9 7.6 7.3 7.7 7.8 7.8 7.3
7.7 3.0 6.6 6.7 6.4 6.4 6.2 6.1 5.8 6.4 6.9 6.8 nan nan nan nan nan nan nan nan 4.2 nan 4.4 5.0 5.8 5.7 6.0 6.1 6.5 7.9 8.2 8.3 8.4 8.0 7.9 7.2 7.0 7.0 7.2 7.1 7.4 7.1 7.3
8.5 7.9 7.6 7.3 7.1 6.7 6.8 7.0 6.6 7.2 7.4 7.3 7.7 6.1 3.7 nan nan nan nan 4.3 4.9 5.3 5.3 5.2 5.2 5.5 5.9 5.7 5.8 5.7 7.4 7.6 7.6 6.9 6.8 6.6 6.7 6.7 6.8 7.2 7.6 5.5 5.7
9.0 3.9 6.6 7.7 8.0 8.1 8.5 8.5 9.0 8.9 8.9 8.7 8.6 8.5 5.9 5.2 5.2 4.8 4.4 4.2 4.6 5.0 5.3 5.5 5.3 5.2 5.2 5.2 5.3 5.4 6.6 6.6 6.8 6.7 6.7 6.6 6.7 6.5 7.6 6.9 7.0 7.6 7.0
8.7 9.1 3.0 9.2 8.7 8.6 8.5 8.9 9.3 8.7 9.0 8.6 9.0 8.0 nan 6.2 7.4 6.0 5.7 5.5 5.0 5.0 5.7 5.5 5.4 5.1 4.9 4.8 5.1 5.3 6.4 7.3 6.8 6.6 6.4 6.4 6.5 6.5 6.8 7.6 7.1 7.0 7.1
8.9 8.8 8.9 8.8 9.7 9.5 8.9 9.8 9.5 9.5 9.7 9.9 10.3 8.9 nan 7.0 6.9 7.1 6.6 5.9 5.4 5.1 5.0 5.4 5.3 5.0 5.1 5.2 5.5 5.7 6.9 6.7 6.5 6.7 7.1 7.1 6.7 7.2 6.9 7.8 7.6 7.9 7.3
9.9 10.5 10.2 10.3 10.2 4.6 9.7 9.1 9.6 9.7 10.1 9.7 9.9 10.1 9.2 7.9 7.6 7.4 6.4 6.1 6.3 6.3 6.2 6.0 6.1 6.2 6.0 5.9 6.1 6.3 7.2 7.3 7.2 6.5 7.6 7.5 7.7 7.2 7.3 7.6 7.8 7.8 7.7
10.7 10.7 10.7 9.7 10.2 10.8 10.1 9.8 10.4 4.3 10.2 10.0 8.5 9.2 10.8 9.8 8.3 8.4 8.0 7.0 7.3 6.2 6.7 6.5 6.8 6.9 6.7 5.9 5.4 5.4 5.3 5.3 6.1 6.4 6.7 8.0 8.0 7.7 8.4 7.9 8.5 8.4 9.2
10.4 11.1 11.0 11.2 9.5 10.4 10.7 9.9 11.2 9.8 9.2 10.0 9.4 10.6 10.6 10.9 10.5 9.0 8.8 8.7 7.8 7.6 7.8 7.5 7.3 7.3 7.3 7.3 6.7 6.0 5.5 3.0 5.9 3.0 7.4 8.4 8.0 7.9 8.2 8.6 8.7 9.2 9.5
11.8 11.5 11.3 11.2 11.3 10.7 10.4 10.5 10.2 11.2 10.1 9.9 10.3 10.3 11.0 11.1 10.9 10.0 10.3 10.0 9.9 8.9 8.3 7.8 7.5 7.7 8.0 7.7 7.8 3.8 3.0 3.0 7.1 3.0 8.3 9.1 8.6 9.0 9.1 9.0 9.2 9.3 9.8